www.pogodaiklimat.ru

Погода и климат >> Архив погоды >> Россия >> Якутия >> Себян-Кюель


ПОГОДА в Себян-Кюеле

  • Прогноз погоды в Себян-Кюеле
  • Монитор погоды в Себян-Кюеле
  • Климат города

АРХИВ ПОГОДЫ в Себян-Кюеле

Время (UTC), дата Ветер
(напр.,м/с)
 
Видим.   Явления Облачность Т
(С)
Тd
(С)
f
(%)
Тe
(С)
Тes
(С)
Комфортность P
(гПа)
Po
(гПа)
Тmin
(С)
Tmax
(С)
R
(мм)
R24
(мм)
S
(см)
06 19.04 Ю 4 50 км 10/4 1500 м
[Cb cap Ac trans Ci fib]
-1.0 -9.7 52 -6 -5 1013.9 920.5
09 19.04 Ю 2 50 км 10/4 1500 м
[Cb cap Ac trans Ci fib]
-2.0 -8.7 60 -5 -5 1014.5 920.7
12 19.04 ЮЗ 2 50 км 10/10 2000 м
[Cb calv]
-7.8 -12.3 70 -12 -12 1017.1 921.1 -1.0
15 19.04 З 1 50 км 6/0 2000 м
[Ac trans]
-14.2 -16.9 80 -17 -17 1019.9 921.4
18 19.04 ЮЗ 2 50 км 6/0 2000 м
[Ac trans]
-18.4 -20.3 85 -24 -24 1021.8 921.6
21 19.04 Ю 1 50 км ясно -17.4 -19.3 85 -20 -19 1021.3 921.5
00 20.04 В 1 50 км ясно -6.6 -8.2 88 -9 -3 1015.9 920.4 -18.4 28
03 20.04 ЮВ 2 50 км ясно -1.0 -7.6 61 -4 +4 1012.8 919.5
06 20.04 ЮВ 2 50 км 10/3 1000 м
[Sc As trans]
-1.2 -7.5 62 -5 -3 1012.0 918.7
09 20.04 В 1 50 км 10/0 2000 м
[As op]
-1.8 -7.5 65 -4 -3 1011.8 918.3
12 20.04 штиль 0 50 км 10/0 2000 м
[As op]
-4.4 -8.7 72 -5 -5 1012.9 918.4 -0.5
15 20.04 штиль 0 50 км 10/0 2000 м
[As op Cs]
-8.8 -11.2 83 -9 -9 1013.7 917.7
18 20.04 ЮЗ 1 50 км 10/0 2000 м
[As op]
-10.4 -11.6 91 -13 -13 1013.4 916.9
21 20.04 ЮЗ 1 50 км 10/0 2000 м
[As op]
-12.6 -13.9 90 -15 -15 1013.9 916.6
00 21.04 штиль 0 50 км 8/3 600 м
[Sc Ac trans Ci fib]
-5.8 -9.7 74 -7 -4 1010.5 915.8 -13.8 28
03 21.04 В 3 50 км 10/8 1300 м
[Sc Ac trans]
+1.0 -10.1 43 -3 -2 1007.0 914.8
06 21.04 В 3 50 км 9/6 1440 м
[Sc Ac trans Ci fib]
+3.3 -7.0 47 0 +1 1006.7 915.3
09 21.04 Ю 3
{11}
50 км 8/6 1300 м
[Sc Ac trans Ci fib]
+1.8 -7.1 52 -2 -2 1009.7 917.5
12 21.04 штиль 0 50 км 10/8 1080 м
[Sc Ci fib]
-2.0 -7.4 67 -3 -3 1013.1 919.4 +5.1
15 21.04 штиль 0 50 км 10/5 1000 м
[Sc Ac und]
-3.3 -6.1 81 -4 -4 1014.2 920.0
18 21.04 штиль 0 10 км слабый снег 10/5 1000 м
[Sc As op]
-2.9 -4.6 88 -4 -4 1014.8 920.6
21 21.04 В 2 10 км слабый снег 10/5 1000 м
[Sc As op]
-5.1 -6.1 93 -9 -9 1016.2 921.2
00 22.04 В 3 50 км {снег} 10/10 1000 м
[Sc]
-4.2 -8.0 75 -9 -9 1016.5 921.8 -4.9 0.0 28
03 22.04 СВ 3 50 км 10/10 1500 м
[Sc]
+2.8 -5.3 55 -1 -1 1014.8 922.5
06 22.04 ЮВ 1 50 км 10/10 1500 м
[Sc]
+3.6 -4.5 55 +3 +3 1015.6 923.5
09 22.04 В 2 50 км 10/10 1500 м
[Sc]
+2.0 -5.6 57 -1 -1 1017.6 924.8
12 22.04 В 1 50 км 10/10 1500 м
[Sc]
+0.6 -4.8 67 -1 -1 1020.1 926.6 +3.8
15 22.04 ЮВ 1 50 км 10/10 1500 м
[Sc]
-2.6 -6.1 77 -5 -5 1021.9 927.2
18 22.04 ЮВ 2 50 км 10/10 1500 м
[Sc]
-4.8 -7.0 85 -9 -9 1024.4 928.8
21 22.04 ЮЗ 1 50 км 6/6 1500 м
[Sc]
-5.0 -6.5 89 -7 -7 1025.5 929.7
00 23.04 штиль 0 50 км 3/0
[Ci fib]
+2.6 -4.8 58 +2 +9 1023.4 930.2 -5.4 25
03 23.04 штиль 0 50 км ясно +6.8 -6.1 39 +7 +18 опасность
простуды
1021.5 929.8
06 23.04 С 3 50 км ясно +6.7 -7.2 36 +4 +10 1021.5 929.8
09 23.04 СВ 2 50 км ясно +6.8 -6.1 39 +5 +7 1021.5 929.8
12 23.04 ЮЗ 1 50 км ясно -0.2 -5.4 68 -2 -2 1024.7 930.5 +9.1
15 23.04 З 2 50 км ясно -4.9 -5.5 96 -9 -9 1026.6 930.7
18 23.04 З 2 50 км 3/0
[Ci fib]
-8.8 -9.5 95 -13 -13 1028.1 930.7
21 23.04 З 2 50 км 3/0
[Ci fib]
-7.4 -8.7 90 -12 -11 1027.4 930.5
00 24.04 штиль 0 50 км ясно +2.8 -3.8 62 +2 +9 1022.3 929.3 -9.6 18
03 24.04 штиль 0 50 км ясно +7.2 -1.2 55 +7 +19 опасность
простуды
1019.1 927.8
06 24.04 З 2 50 км ясно +6.2 -2.3 54 +4 +11 1018.4 926.9
09 24.04 ЮЗ 3 50 км 4/0 2000 м
[Ac trans]
+4.8 -2.9 57 +2 +3 1018.5 926.5
12 24.04 ЮЗ 2 50 км 8/0 2000 м
[Ac trans Cs]
-1.0 -6.1 68 -4 -4 1020.9 926.9 +8.8
15 24.04 З 3 50 км 8/0 2000 м
[As op]
-2.2 -6.9 70 -7 -7 1021.4 926.9
18 24.04 Ю 1 50 км 3/0 2000 м
[As op]
-6.6 -8.6 86 -9 -9 1023.2 927.0
21 24.04 ЮЗ 2 50 км ясно -6.0 -8.3 84 -10 -10 1023.4 927.4
00 25.04 З 2 50 км ясно +2.6 -4.4 60 0 +5 1018.5 925.8 -8.1 16
03 25.04 ЮЗ 3 50 км 6/0 2000 м
[Ac trans]
+3.6 -4.5 55 0 +5 1017.6 925.3
06 25.04 З 3 50 км 8/4 1000 м
[Sc Ac trans]
+4.6 -3.9 54 +2 +4 1016.8 924.9
09 25.04 З 2 50 км 8/4 1000 м
[Sc Ac trans]
+3.8 -4.2 56 +2 +2 1017.0 924.8
12 25.04 ЮВ 1 50 км 10/0
[Cs]
-1.8 -6.0 73 -4 -4 1018.8 924.7 +4.6
15 25.04 штиль 0 50 км 6/0
[Cs]
-5.8 -8.8 79 -7 -7 1020.0 924.4
18 25.04 штиль 0 50 км 6/0
[Cs]
-8.8 -9.5 95 -9 -9 1019.9 923.3
21 25.04 З 1 50 км 10/0
[Ac trans]
-7.8 -8.4 95 -10 -10 1017.0 921.0
00 26.04 штиль 0 50 км 8/0 2000 м
[Ac trans]
-4.2 -6.8 82 -5 -1 1013.8 919.3 -9.6 16
03 26.04 СВ 1 50 км 5/5 1000 м
[Cu hum]
+1.0 -2.9 75 -1 +5 1009.6 917.2

 

Местоположение метеостанции Себян-Кюель (Якутия, Россия): широта 65.30 долгота 130.00 высота над уровнем моря 777 м.

В архиве по умолчанию представлена погода в Себян-Кюеле за последнюю неделю. Архивные данные за месяц целиком и за предыдущие месяцы, начиная с января 2011 года, Вы можете получить, выбрав интересующий диапазон дат из раскрывающегося списка и нажав кнопку "Ввод!".

Внимание! Время в таблицах - всемирное. Для получения местного времени необходимо прибавить поправку, которая в Себян-Кюеле равна 9 ч.

Смотрите также архив погоды в соседних городах и на ближайших метеорологических станциях:

Погода в Сеген-Кюели (Якутия, Россия) (145 км)
Погода в Екюччю (Якутия, Россия) (179 км)
Погода в Сангаре (Якутия, Россия) (195 км)
Погода в Батамае (Якутия, Россия) (200 км)
Погода в Сого-Хае (Якутия, Россия) (205 км)
Погода в Верхоянском Перевозе (Якутия, Россия) (240 км)
Погода в Иэме (Якутия, Россия) (269 км)
Погода в Бестяхской Звероферме (Якутия, Россия) (274 км)
Погода в Батагай-Алыте (Якутия, Россия) (276 км)
Погода в Намцах (Якутия, Россия) (288 км)

Пояснения к столбцам:

Ветер - указаны скорость ветра в м/с - средняя за 10 мин, порывы в срок и между сроками (в фигурных скобках) и направление, откуда дует ветер: С - северный, СВ - северо-восточный, В - восточный, ЮВ - юго-восточный, Ю - южный, ЮЗ - юго-западный, З - западный, СЗ - северо-западный.
Видимость - горизонтальная дальность видимости в метрах или километрах. При видимости от 1 до 10 км при отсутствии осадков обычно наблюдается дымка, при ухудшении видимости до 1 км и менее - туман. В сухую погоду видимость может ухудшаться дымом, пылью или мглою.
Явления - указаны атмосферные явления, наблюдавшиеся в срок или в последний час перед сроком; фигурными скобками обозначены явления, наблюдавшиеся между сроками (за 1-3 часа до срока); квадратными скобками обозначены град или гололедные отложения с указанием их диаметра в мм.
Облачность - указаны через наклонную черту общая и нижняя облачность в баллах и высота нижней границы облаков в метрах; квадратными скобками обозначены формы облаков: Ci - перистые, Cs - перисто-слоистые, Cc - перисто-кучевые, Ac - высококучевые, As - высокослоистые, Sc - слоисто-кучевые, Ns - слоисто-дождевые, Cu - кучевые, Cb - кучево-дождевые. Подробнее классификацию облаков см. в Атласе облаков (PDF).
T - Температура воздуха - температура, измеренная на высоте 2 м над землей.
Td - Температура точки росы - температура, при понижении до которой содержащийся в воздухе водяной пар достигнет насыщения.
f - Относительная влажность воздуха - влажноcть воздуха, измеренная на высоте 2 м над землей.
Te - Эффективная температура - температура, которую ощущает одетый по сезону человек в тени. Характеристика душности погоды. При расчете учитывается влияние влажности воздуха и скорости ветра на теплоощущения человека.
Tes - Эффективная температура на солнце - температура, которую ощущает человек, с поправкой на солнечный нагрев. Характеристика знойности погоды. Зависит от высоты солнца над горизонтом, облачности и скорости ветра. Ночью, в пасмурную погоду, а также при ветре 12 м/с и более поправка равна нулю.
P - Атмосферное давление - приведенное к уровню моря атмосферное давление.
Po - Атмосферное давление - измеренное на уровне метеостанции атмосферное давление.
Tmin - Минимальная температура - минимум температуры воздуха на высоте 2 м над землей.
Tmax - Максимальная температура - максимум температуры воздуха на высоте 2 м над землей.
R - Количество осадков - Количество выпавших осадков за период времени, мм. При наведении курсора мыши на число - период времени, за который выпало указанное количество осадков.
R24 - Количество осадков - Количество выпавших осадков за 24 часа, мм.
S - Снежный покров - Высота снежного покрова, см. При наведении курсора мыши на число - состояние снежного покрова и степень покрытия местности в баллах.